Location: Lafig�re
(44.4503°N, 4.0357°E)
Time: 11:52:14
(UTC+00:00)

deb Explorer IX - Pass Details

Date: 25 June 2021
Orbit: 543 x 1094 km, 38.8° (Epoch: 30 July)

Event Time Altitude Azimuth Distance (km) Brightness Sun altitude
Exits shadow 03:18:16 - 209° (SSW) 2,346 ? -6.7°
Reaches altitude 10° 03:19:15 10° 201° (SSW) 2,046 ? -6.6°
Maximum altitude 03:22:29 19° 157° (SSE) 1,473 ? -6.2°
Drops below altitude 10° 03:25:31 10° 112° (ESE) 1,887 ? -5.8°
Sets 03:28:13 0° 94° (E) 2,737 ? -5.4°
